When you browse on this site, cookies collect data to enhance your experience and personalize the content and advertising you see.
Visit our Privacy Policy to learn more. By continuing to use the site, you agree to this use of cookies and data.
  • Em Portugal
  • Lista de países
  • Para 7 dias
  • Temperatura da água
  • Mapas de satélite
  • Mapa do tempo
  • Widgets de tempo
  • user-avatar
    Iniciar Sessão

    Previsão horária em Zaranj

    Hoje, 24 Julho, Quarta-feira

    Tempo Temperatura Precipitação Vento Pressão Humidade
    00:00 +38°C° 0 mm 8 m/s 709 mmHg 15%
    01:00 +37°C° 0 mm 8 m/s 709 mmHg 15%
    02:00 +35°C° 0 mm 8 m/s 709 mmHg 15%
    03:00 +34°C° 0 mm 8 m/s 709 mmHg 14%
    04:00 +33°C° 0 mm 8 m/s 709 mmHg 14%
    05:00 +34°C° 0 mm 8 m/s 709 mmHg 13%
    06:00 +35°C° 0 mm 8 m/s 710 mmHg 11%
    07:00 +37°C° 0 mm 8 m/s 710 mmHg 10%
    08:00 +39°C° 0 mm 8 m/s 710 mmHg 9%
    09:00 +43°C° 0 mm 8 m/s 710 mmHg 8%
    10:00 +45°C° 0 mm 9 m/s 710 mmHg 7%
    11:00 +46°C° 0 mm 8 m/s 710 mmHg 6%
    12:00 +49°C° 0 mm 7 m/s 710 mmHg 5%
    13:00 +49°C° 0 mm 6 m/s 709 mmHg 5%
    14:00 +51°C° 0 mm 6 m/s 709 mmHg 5%
    15:00 +50°C° 0 mm 5 m/s 708 mmHg 5%
    16:00 +50°C° 0 mm 5 m/s 708 mmHg 5%
    17:00 +47°C° 0 mm 4 m/s 708 mmHg 6%
    18:00 +44°C° 0 mm 4 m/s 707 mmHg 7%
    19:00 +40°C° 0 mm 3 m/s 707 mmHg 9%
    20:00 +40°C° 0 mm 4 m/s 707 mmHg 10%
    21:00 +39°C° 0 mm 5 m/s 707 mmHg 11%
    22:00 +37°C° 0 mm 5 m/s 707 mmHg 13%
    23:00 +38°C° 0 mm 6 m/s 707 mmHg 13%

    Amanhã, 25 Julho, Quinta-feira

    Tempo Temperatura Precipitação Vento Pressão Humidade
    00:00 +38°C° 0 mm 7 m/s 707 mmHg 13%
    01:00 +38°C° 0 mm 7 m/s 707 mmHg 14%
    02:00 +36°C° 0 mm 7 m/s 707 mmHg 16%
    03:00 +36°C° 0 mm 7 m/s 707 mmHg 18%
    04:00 +35°C° 0 mm 7 m/s 707 mmHg 20%
    05:00 +37°C° 0 mm 9 m/s 707 mmHg 19%
    06:00 +38°C° 0 mm 10 m/s 708 mmHg 18%
    07:00 +39°C° 0 mm 11 m/s 708 mmHg 17%
    08:00 +41°C° 0 mm 12 m/s 708 mmHg 15%
    09:00 +43°C° 0 mm 12 m/s 708 mmHg 14%
    10:00 +46°C° 0 mm 13 m/s 708 mmHg 12%
    11:00 +48°C° 0 mm 12 m/s 708 mmHg 10%
    12:00 +49°C° 0 mm 12 m/s 708 mmHg 9%
    13:00 +52°C° 0 mm 11 m/s 708 mmHg 7%
    14:00 +52°C° 0 mm 11 m/s 707 mmHg 7%
    15:00 +52°C° 0 mm 12 m/s 706 mmHg 7%
    16:00 +52°C° 0 mm 12 m/s 706 mmHg 7%
    17:00 +49°C° 0 mm 11 m/s 706 mmHg 8%
    18:00 +48°C° 0 mm 10 m/s 706 mmHg 10%
    19:00 +45°C° 0 mm 9 m/s 706 mmHg 11%
    20:00 +44°C° 0 mm 10 m/s 706 mmHg 12%
    21:00 +43°C° 0 mm 11 m/s 706 mmHg 13%
    22:00 +41°C° 0 mm 11 m/s 706 mmHg 14%
    23:00 +39°C° 0 mm 11 m/s 706 mmHg 15%

    Depois de amanhã, 26 Julho, Sexta-feira

    Tempo Temperatura Precipitação Vento Pressão Humidade
    00:00 +39°C° 0 mm 11 m/s 706 mmHg 16%
    01:00 +38°C° 0 mm 12 m/s 705 mmHg 17%
    02:00 +37°C° 0 mm 11 m/s 705 mmHg 18%
    03:00 +36°C° 0 mm 10 m/s 705 mmHg 18%
    04:00 +36°C° 0 mm 10 m/s 705 mmHg 19%
    05:00 +36°C° 0 mm 11 m/s 705 mmHg 18%
    06:00 +37°C° 0 mm 11 m/s 706 mmHg 17%
    07:00 +37°C° 0 mm 12 m/s 706 mmHg 16%
    08:00 +39°C° 0 mm 12 m/s 706 mmHg 14%
    09:00 +43°C° 0 mm 12 m/s 707 mmHg 12%
    10:00 +46°C° 0 mm 11 m/s 707 mmHg 9%
    11:00 +47°C° 0 mm 11 m/s 707 mmHg 8%
    12:00 +49°C° 0 mm 11 m/s 706 mmHg 7%
    13:00 +52°C° 0 mm 10 m/s 706 mmHg 6%
    14:00 +52°C° 0 mm 11 m/s 705 mmHg 6%
    15:00 +52°C° 0 mm 12 m/s 705 mmHg 6%
    16:00 +52°C° 0 mm 12 m/s 704 mmHg 6%
    17:00 +49°C° 0 mm 11 m/s 704 mmHg 7%
    18:00 +47°C° 0 mm 10 m/s 704 mmHg 9%
    19:00 +44°C° 0 mm 9 m/s 704 mmHg 10%
    20:00 +43°C° 0 mm 10 m/s 704 mmHg 11%
    21:00 +42°C° 0 mm 10 m/s 705 mmHg 11%
    22:00 +41°C° 0 mm 11 m/s 705 mmHg 12%
    23:00 +39°C° 0 mm 11 m/s 705 mmHg 13%

    27 Julho, Sábado

    Tempo Temperatura Precipitação Vento Pressão Humidade
    00:00 +38°C° 0 mm 11 m/s 705 mmHg 14%
    01:00 +38°C° 0 mm 11 m/s 705 mmHg 16%
    02:00 +37°C° 0 mm 11 m/s 704 mmHg 17%
    03:00 +36°C° 0 mm 10 m/s 704 mmHg 18%
    04:00 +34°C° 0 mm 9 m/s 704 mmHg 20%
    05:00 +34°C° 0 mm 8 m/s 705 mmHg 19%
    06:00 +35°C° 0 mm 8 m/s 705 mmHg 18%
    07:00 +35°C° 0 mm 8 m/s 706 mmHg 17%
    08:00 +39°C° 0 mm 8 m/s 706 mmHg 15%
    09:00 +41°C° 0 mm 8 m/s 707 mmHg 12%
    10:00 +44°C° 0 mm 8 m/s 707 mmHg 9%
    11:00 +46°C° 0 mm 7 m/s 707 mmHg 8%
    12:00 +47°C° 0 mm 6 m/s 706 mmHg 7%
    13:00 +49°C° 0 mm 5 m/s 706 mmHg 6%
    14:00 +50°C° 0 mm 4 m/s 705 mmHg 6%
    15:00 +50°C° 0 mm 3 m/s 705 mmHg 5%
    16:00 +51°C° 0 mm 3 m/s 705 mmHg 5%
    17:00 +47°C° 0 mm 3 m/s 704 mmHg 6%
    18:00 +44°C° 0 mm 3 m/s 704 mmHg 8%
    19:00 +40°C° 0 mm 3 m/s 704 mmHg 9%
    20:00 +41°C° 0 mm 5 m/s 704 mmHg 10%
    21:00 +41°C° 0 mm 7 m/s 705 mmHg 12%
    22:00 +42°C° 0 mm 10 m/s 705 mmHg 13%
    23:00 +40°C° 0 mm 10 m/s 705 mmHg 14%

    28 Julho, Domingo

    Tempo Temperatura Precipitação Vento Pressão Humidade
    00:00 +39°C° 0 mm 11 m/s 705 mmHg 16%
    01:00 +38°C° 0 mm 11 m/s 705 mmHg 17%
    02:00 +37°C° 0 mm 11 m/s 705 mmHg 18%
    03:00 +37°C° 0 mm 11 m/s 705 mmHg 19%
    04:00 +36°C° 0 mm 10 m/s 706 mmHg 20%
    05:00 +37°C° 0 mm 10 m/s 706 mmHg 19%
    06:00 +37°C° 0 mm 9 m/s 706 mmHg 18%
    07:00 +38°C° 0 mm 9 m/s 707 mmHg 18%
    08:00 +40°C° 0 mm 9 m/s 707 mmHg 16%
    09:00 +43°C° 0 mm 9 m/s 707 mmHg 13%
    10:00 +47°C° 0 mm 10 m/s 708 mmHg 11%
    11:00 +48°C° 0 mm 9 m/s 707 mmHg 10%
    12:00 +50°C° 0 mm 8 m/s 707 mmHg 8%
    13:00 +51°C° 0 mm 8 m/s 707 mmHg 6%
    14:00 +52°C° 0 mm 7 m/s 707 mmHg 6%
    15:00 +52°C° 0 mm 6 m/s 706 mmHg 5%
    16:00 +52°C° 0 mm 6 m/s 706 mmHg 5%
    17:00 +49°C° 0 mm 5 m/s 706 mmHg 6%
    18:00 +45°C° 0 mm 4 m/s 705 mmHg 7%
    19:00 +43°C° 0 mm 3 m/s 705 mmHg 8%
    20:00 +42°C° 0 mm 4 m/s 705 mmHg 9%
    21:00 +41°C° 0 mm 4 m/s 706 mmHg 11%
    22:00 +40°C° 0 mm 5 m/s 706 mmHg 12%
    23:00 +39°C° 0 mm 5 m/s 706 mmHg 14%

    29 Julho, Segunda-feira

    Tempo Temperatura Precipitação Vento Pressão Humidade
    00:00 +38°C° 0 mm 6 m/s 706 mmHg 15%
    01:00 +36°C° 0 mm 6 m/s 706 mmHg 17%
    02:00 +36°C° 0 mm 7 m/s 706 mmHg 17%
    03:00 +36°C° 0 mm 7 m/s 706 mmHg 18%
    04:00 +37°C° 0 mm 8 m/s 706 mmHg 19%
    05:00 +38°C° 0 mm 8 m/s 707 mmHg 18%
    06:00 +38°C° 0 mm 8 m/s 707 mmHg 17%
    07:00 +39°C° 0 mm 8 m/s 708 mmHg 16%
    08:00 +43°C° 0 mm 8 m/s 708 mmHg 13%
    09:00 +45°C° 0 mm 8 m/s 708 mmHg 11%
    10:00 +49°C° 0 mm 8 m/s 709 mmHg 8%
    11:00 +50°C° 0 mm 8 m/s 708 mmHg 7%
    12:00 +52°C° 0 mm 7 m/s 708 mmHg 6%
    13:00 +53°C° 0 mm 7 m/s 708 mmHg 5%
    14:00 +53°C° 0 mm 6 m/s 707 mmHg 5%
    15:00 +53°C° 0 mm 5 m/s 707 mmHg 5%
    16:00 +52°C° 0 mm 4 m/s 706 mmHg 5%
    17:00 +48°C° 0 mm 3 m/s 706 mmHg 6%
    18:00 +43°C° 0 mm 2 m/s 705 mmHg 7%
    19:00 +40°C° 0 mm 2 m/s 705 mmHg 8%
    20:00 +40°C° 0 mm 2 m/s 705 mmHg 9%
    21:00 +40°C° 0 mm 3 m/s 706 mmHg 9%
    22:00 +39°C° 0 mm 3 m/s 706 mmHg 9%
    23:00 +38°C° 0 mm 4 m/s 706 mmHg 12%
    Mostrar mais